This is the latest recevied weather packets stored in our database for station/object KF0JJO. If no packets are shown the sender has not sent any weather packets the latest 10 day(s).
| Time | Temp. | Humidity | Pressure | Rain* | Wind** | Luminosity | Snow |
|---|---|---|---|---|---|---|---|
| 1777935821 | 12.78° C | 35% | 1034.5 hPa | 0 mm | - | 160 W/m² | - |
| 1777935519 | 12.78° C | 35% | 1034.4 hPa | 0 mm | - | 153 W/m² | - |
| 1777935215 | 12.78° C | 34% | 1034.2 hPa | 0 mm | - | 123 W/m² | - |
| 1777934913 | 12.78° C | 36% | 1034 hPa | 0 mm | - | 183 W/m² | - |
| 1777934610 | 13.33° C | 35% | 1034.2 hPa | 0 mm | - | 145 W/m² | - |
| 1777934306 | 13.33° C | 34% | 1034.2 hPa | 0 mm | - | 128 W/m² | - |
| 1777934002 | 13.89° C | 34% | 1034.1 hPa | 0 mm | - | 130 W/m² | - |
| 1777933699 | 13.89° C | 35% | 1033.9 hPa | 0 mm | - | 236 W/m² | - |
| 1777933396 | 13.89° C | 35% | 1033.9 hPa | 0 mm | - | 139 W/m² | - |
| 1777933094 | 13.89° C | 35% | 1033.8 hPa | 0 mm | - | 161 W/m² | - |
| 1777932790 | 14.44° C | 34% | 1033.6 hPa | 0 mm | - | 158 W/m² | - |
| 1777932487 | 15° C | 34% | 1033.5 hPa | 0 mm | - | 391 W/m² | - |
| 1777932184 | 15.56° C | 32% | 1033.6 hPa | 0 mm | - | 183 W/m² | - |
| 1777931882 | 15° C | 32% | 1033.3 hPa | 0 mm | - | 570 W/m² | - |
| 1777931577 | 14.44° C | 33% | 1033.2 hPa | 0 mm | - | 374 W/m² | - |
| 1777931274 | 15° C | 32% | 1033.2 hPa | 0 mm | - | 211 W/m² | - |
| 1777930970 | 14.44° C | 35% | 1032.9 hPa | 0 mm | - | 372 W/m² | - |
| 1777930667 | 15° C | 35% | 1033 hPa | 0 mm | - | 186 W/m² | - |
| 1777930363 | 15.56° C | 34% | 1033 hPa | 0 mm | - | 198 W/m² | - |
| 1777930061 | 16.67° C | 31% | 1032.8 hPa | 0 mm | - | 140 W/m² | - |
| 1777929757 | 16.67° C | 32% | 1032.5 hPa | 0 mm | - | 779 W/m² | - |
| 1777929455 | 17.22° C | 29% | 1032.4 hPa | 0 mm | - | 641 W/m² | - |
| 1777929150 | 17.78° C | 30% | 1032.7 hPa | 0 mm | - | 747 W/m² | - |
| 1777928848 | 17.22° C | 30% | 1032.6 hPa | 0 mm | - | 737 W/m² | - |
| 1777928545 | 17.22° C | 30% | 1032.3 hPa | 0 mm | - | 720 W/m² | - |
* Rain latest hour (hover to see other rain measurements)
** Current wind speed in m/s (hover to see current wind gust speed)